AU860 Weather Reports


time (UTC)temp
C
wind
direction
speed
KPH
gust
KPH
rain 1hr
cm
rain 24hr
cm
rain mn
cm
humidity
%
barometer
mb
20260504110350 4 46 0.0 1.6 0.00 0.00 0.00 88 1014.8
20260504100342 5 46 0.0 1.6 0.00 0.00 0.00 86 1015.1
20260504081652 4 314 0.0 3.2 0.00 0.00 0.00 84 1015.2
20260504081146 4 15 1.6 4.8 0.00 0.00 0.00 84 1015.1
20260504080640 4 314 1.6 4.8 0.00 0.00 0.00 84 1015.1
20260504080133 4 314 1.6 6.4 0.00 0.00 0.00 83 1015.1
20260504070112 5 269 0.0 1.6 0.00 0.00 0.00 78 1015.1
20260504060110 6 269 3.2 4.8 0.00 0.00 0.00 77 1015.1
20260504050513 7 269 1.6 4.8 0.00 0.00 0.00 75 1015.2
20260504050007 7 253 1.6 4.8 0.00 0.00 0.00 75 1015.2
20260504045501 7 1 1.6 4.8 0.00 0.00 0.00 75 1015.2
20260504044955 7 257 1.6 4.8 0.00 0.00 0.00 75 1015.2
20260504044449 7 314 1.6 4.8 0.00 0.00 0.00 76 1015.2
20260504043943 7 269 1.6 4.8 0.00 0.00 0.00 76 1015.2
20260504043654 6 223 1.6 4.8 0.00 0.00 0.00 76 1015.1
20260504042931 6 269 1.6 4.8 0.00 0.00 0.00 76 1015.1
20260504042425 6 269 1.6 3.2 0.00 0.00 0.00 76 1015.1
20260504042145 6 269 1.6 3.2 0.00 0.00 0.00 76 1015.0
20260504041413 6 253 1.6 4.8 0.00 0.00 0.00 76 1014.8
20260504040907 6 250 1.6 4.8 0.00 0.00 0.00 76 1014.8
20260504040401 6 269 1.6 4.8 0.00 0.00 0.00 76 1014.8
20260504040118 6 314 1.6 4.8 0.00 0.00 0.00 76 1014.8
20260504035351 6 1 1.6 4.8 0.00 0.00 0.00 76 1014.8
20260504035108 6 296 1.6 3.2 0.00 0.00 0.00 76 1014.8
20260504034340 6 296 1.6 3.2 0.00 0.00 0.00 76 1014.8
20260504033834 6 1 1.6 3.2 0.00 0.00 0.00 76 1014.7
20260504033329 6 178 1.6 3.2 0.00 0.00 0.00 77 1014.7
20260504032821 6 245 1.6 3.2 0.00 0.00 0.00 77 1014.6
20260504032315 6 296 1.6 3.2 0.00 0.00 0.00 77 1014.6
20260504032029 6 314 1.6 3.2 0.00 0.00 0.00 77 1014.6
20260504031304 6 314 1.6 3.2 0.00 0.00 0.00 77 1014.6
20260504031019 6 269 0.0 3.2 0.00 0.00 0.00 77 1014.6
20260504030256 6 314 0.0 3.2 0.00 0.00 0.00 76 1014.6
20260504025756 6 269 0.0 1.6 0.00 0.00 0.00 76 1014.5
20260504025253 6 1 0.0 1.6 0.00 0.00 0.00 76 1014.5
20260504024751 6 314 0.0 1.6 0.00 0.00 0.00 75 1014.5
20260504024252 6 331 0.0 1.6 0.00 0.00 0.00 75 1014.5
20260504023752 7 46 0.0 1.6 0.00 0.00 0.00 75 1014.5
20260504023512 7 89 0.0 1.6 0.00 0.00 0.00 75 1014.6
20260504022748 7 89 0.0 1.6 0.00 0.00 0.00 75 1014.5
20260504022506 7 269 0.0 1.6 0.00 0.00 0.00 74 1014.5
20260504021748 7 46 0.0 1.6 0.00 0.00 0.00 74 1014.5
20260504021248 7 269 0.0 1.6 0.00 0.00 0.00 74 1014.5
20260504020748 8 46 0.0 1.6 0.00 0.00 0.00 74 1014.5
20260504020247 8 223 0.0 3.2 0.00 0.00 0.00 74 1014.6
20260504020012 8 269 0.0 3.2 0.00 0.00 0.00 73 1014.5
20260504015243 8 1 0.0 3.2 0.00 0.00 0.00 72 1014.6
20260504014743 8 46 0.0 1.6 0.00 0.00 0.00 71 1014.5
20260504014244 8 269 0.0 3.2 0.00 0.00 0.00 71 1014.5
20260504014003 8 46 0.0 3.2 0.00 0.00 0.00 71 1014.4
20260504013244 9 314 0.0 1.6 0.00 0.00 0.00 70 1014.4
20260504012742 9 46 0.0 1.6 0.00 0.00 0.00 70 1014.3
20260504012242 9 269 0.0 1.6 0.00 0.00 0.00 70 1014.3
20260504011739 10 269 0.0 3.2 0.00 0.00 0.00 70 1014.3
20260504011503 10 269 0.0 3.2 0.00 0.00 0.00 69 1014.2
20260504010741 10 314 0.0 3.2 0.00 0.00 0.00 69 1014.1
20260504010239 10 269 1.6 3.2 0.00 0.00 0.00 68 1014.1
20260504005954 10 46 1.6 3.2 0.00 0.00 0.00 68 1014.0
20260504005225 11 258 1.6 3.2 0.00 0.00 0.00 67 1013.9
20260504004719 11 269 1.6 3.2 0.00 0.00 0.00 65 1013.9
20260504004213 11 269 0.0 3.2 0.00 0.00 0.00 65 1013.9
20260504003707 11 1 0.0 3.2 0.00 0.00 0.00 64 1013.8
20260504003201 11 1 1.6 3.2 0.00 0.00 0.00 63 1013.7
20260504002654 12 241 1.6 3.2 0.00 0.00 0.00 63 1013.7
20260504002148 12 241 0.0 3.2 0.00 0.00 0.00 61 1013.7
20260504001643 12 269 1.6 3.2 0.00 0.00 0.00 61 1013.6
20260504001137 12 314 1.6 3.2 0.00 0.00 0.00 60 1013.5
20260504000631 12 303 1.6 3.2 0.00 0.00 0.00 59 1013.4
20260504000125 13 269 0.0 3.2 0.00 0.00 0.00 59 1013.4
20260503235620 13 46 0.0 4.8 0.00 0.00 0.00 58 1013.4
20260503235113 13 46 1.6 4.8 0.00 0.00 0.00 56 1013.3
20260503234654 13 223 1.6 6.4 0.00 0.00 0.00 56 1013.3
20260503233555 13 223 3.2 9.7 0.00 0.00 0.00 57 1013.2
20260503233049 13 144 3.2 9.7 0.00 0.00 0.00 56 1013.2
20260503232542 13 1 3.2 9.7 0.00 0.00 0.00 56 1013.3
20260503232036 14 257 3.2 9.7 0.00 0.00 0.00 55 1013.2
20260503231530 14 89 3.2 9.7 0.00 0.00 0.00 54 1013.2
20260503231025 14 145 4.8 11.3 0.00 0.00 0.00 53 1013.2
20260503230740 14 319 4.8 12.9 0.00 0.00 0.00 53 1013.2
20260503230019 15 20 4.8 14.5 0.00 0.00 0.00 52 1013.2
20260503225519 15 252 4.8 16.1 0.00 0.00 0.00 53 1013.2
20260503225019 15 122 3.2 16.1 0.00 0.00 0.00 53 1013.1
20260503224519 15 269 3.2 12.9 0.00 0.00 0.00 52 1013.1
20260503224019 15 117 3.2 11.3 0.00 0.00 0.00 54 1013.1
20260503223519 15 135 4.8 16.1 0.00 0.00 0.00 53 1013.1
20260503223019 15 76 4.8 16.1 0.00 0.00 0.00 52 1013.0
20260503222518 15 299 4.8 14.5 0.00 0.00 0.00 52 1013.1
20260503222019 15 159 3.2 9.7 0.00 0.00 0.00 54 1013.1
20260503221519 15 89 3.2 9.7 0.00 0.00 0.00 53 1013.1
20260503221018 15 250 4.8 17.7 0.00 0.00 0.00 51 1013.1
20260503220517 16 303 4.8 17.7 0.00 0.00 0.00 51 1013.2
20260503220017 16 219 4.8 12.9 0.00 0.00 0.00 51 1013.1
20260503215517 16 100 6.4 19.3 0.00 0.00 0.00 52 1013.1
20260503215014 16 290 4.8 19.3 0.00 0.00 0.00 49 1013.1
20260503214737 16 113 4.8 14.5 0.00 0.00 0.00 53 1013.1
20260503214015 16 278 6.4 20.9 0.00 0.00 0.00 51 1012.9
20260503213515 16 23 6.4 20.9 0.00 0.00 0.00 51 1013.1
20260503213236 16 98 4.8 17.7 0.00 0.00 0.00 52 1013.1
20260503212514 16 178 4.8 14.5 0.00 0.00 0.00 53 1013.0
20260503212015 16 284 6.4 14.5 0.00 0.00 0.00 51 1013.0
20260503211515 16 206 4.8 17.7 0.00 0.00 0.00 51 1013.0
20260503211014 16 8 4.8 19.3 0.00 0.00 0.00 57 1013.0
20260503210514 16 127 4.8 19.3 0.00 0.00 0.00 51 1013.1
20260503210238 15 237 6.4 24.1 0.00 0.00 0.00 53 1013.1
20260503205515 15 178 8.0 24.1 0.00 0.00 0.00 51 1013.1
20260503205013 15 283 6.4 19.3 0.00 0.00 0.00 52 1013.0
20260503204512 15 245 6.4 20.9 0.00 0.00 0.00 54 1013.1
20260503204013 15 40 8.0 24.1 0.00 0.00 0.00 52 1013.1
20260503203513 16 303 6.4 24.1 0.00 0.00 0.00 53 1013.1
20260503203012 16 276 6.4 22.5 0.00 0.00 0.00 54 1013.0
20260503202512 15 132 6.4 20.9 0.00 0.00 0.00 55 1013.1
20260503202013 15 283 6.4 20.9 0.00 0.00 0.00 55 1013.2
20260503201512 15 11 6.4 17.7 0.00 0.00 0.00 57 1013.4
20260503201231 15 89 6.4 19.3 0.00 0.00 0.00 55 1013.4
20260503200513 15 241 6.4 27.4 0.00 0.00 0.00 54 1013.4
20260503200013 15 54 6.4 27.4 0.00 0.00 0.00 56 1013.5
20260503195512 15 122 6.4 27.4 0.00 0.00 0.00 57 1013.5
20260503195233 15 68 8.0 27.4 0.00 0.00 0.00 54 1013.5
20260503194511 15 336 8.0 20.9 0.00 0.00 0.00 55 1013.6
20260503194005 15 28 6.4 19.3 0.00 0.00 0.00 54 1013.6
20260503193459 15 34 4.8 19.3 0.00 0.00 0.00 57 1013.6
20260503192953 15 286 6.4 24.1 0.00 0.00 0.00 59 1013.7
20260503192448 14 309 8.0 24.1 0.00 0.00 0.00 59 1013.7
20260503191942 14 257 6.4 24.1 0.00 0.00 0.00 60 1013.8
20260503191436 14 175 6.4 30.6 0.00 0.00 0.00 57 1014.0
20260503190930 14 223 6.4 30.6 0.00 0.00 0.00 54 1014.0
20260503190424 14 350 4.8 20.9 0.00 0.00 0.00 58 1013.9
20260503190150 14 81 4.8 16.1 0.00 0.00 0.00 63 1013.9
20260503185645 14 42 6.4 16.1 0.00 0.00 0.00 56 1014.0
20260503184920 14 206 6.4 24.1 0.00 0.00 0.00 58 1014.1
20260503184420 14 162 6.4 24.1 0.00 0.00 0.00 57 1014.1
20260503183920 13 108 8.0 24.1 0.00 0.00 0.00 64 1014.0
20260503183420 13 139 8.0 25.7 0.00 0.00 0.00 57 1014.2
20260503183403 13 72 6.4 25.7 0.00 0.00 0.00 57 1014.3
20260503182421 13 269 6.4 20.9 0.00 0.00 0.00 59 1014.3
20260503181920 13 285 6.4 25.7 0.00 0.00 0.00 59 1014.1
20260503181420 14 76 6.4 25.7 0.00 0.00 0.00 64 1014.3
20260503181147 13 299 6.4 20.9 0.00 0.00 0.00 57 1014.2
20260503180420 13 100 8.0 20.9 0.00 0.00 0.00 57 1014.4
20260503175920 13 281 8.0 20.9 0.00 0.00 0.00 58 1014.3
20260503175420 13 296 6.4 20.9 0.00 0.00 0.00 58 1014.3
20260503174921 13 322 4.8 20.9 0.00 0.00 0.00 65 1014.4
20260503174420 13 235 8.0 22.5 0.00 0.00 0.00 59 1014.5
20260503173920 13 178 8.0 22.5 0.00 0.00 0.00 67 1014.5
20260503173413 13 222 6.4 20.9 0.00 0.00 0.00 62 1014.5
20260503172908 13 25 6.4 22.5 0.00 0.00 0.00 60 1014.3
20260503172402 12 46 6.4 22.5 0.00 0.00 0.00 61 1014.4
20260503171856 12 327 6.4 19.3 0.00 0.00 0.00 60 1014.5
20260503171354 12 220 8.0 25.7 0.00 0.00 0.00 60 1014.6
20260503170853 12 321 6.4 25.7 0.00 0.00 0.00 63 1014.7
20260503170353 12 37 8.0 20.9 0.00 0.00 0.00 64 1014.7
20260503150834 11 338 4.8 19.3 0.00 0.00 0.00 70 1015.1
20260503150546 10 89 4.8 14.5 0.00 0.00 0.00 70 1015.1
20260503140217 9 41 4.8 12.9 0.00 0.00 0.00 71 1015.2
20260503131116 7 245 6.4 19.3 0.00 0.00 0.00 75 1015.0
20260503130833 7 89 6.4 17.7 0.00 0.00 0.00 74 1014.9
20260503130106 7 269 4.8 14.5 0.00 0.00 0.00 75 1014.9